Total_Precipitation_Accumulation
0.65 0.65 0.68 0.73 0.75 0.73 0.71 0.70 0.74 0.81 0.94 1.14 1.40 1.80 2.02 2.14 2.12 2.12 2.04 1.81 1.59 1.59 1.79 1.78 1.73 1.72 1.73 1.70 1.64 1.80 1.74 1.46 1.38 1.59 1.58 1.42 1.23 1.17 1.17 1.24 1.48 1.59 1.50
0.62 0.60 0.57 0.59 0.64 0.62 0.64 0.74 0.73 0.78 0.90 1.15 1.42 1.73 2.05 2.10 2.11 2.12 2.09 1.98 1.83 1.81 1.86 2.09 2.19 2.15 2.30 2.27 2.07 2.22 2.25 1.86 1.62 1.92 2.25 1.96 1.72 1.31 1.22 1.35 1.41 1.50 1.59
0.51 0.54 0.53 0.52 0.56 0.53 0.50 0.61 0.70 0.81 1.07 1.37 1.62 1.77 2.02 2.10 2.14 2.09 2.10 2.14 2.08 1.97 2.02 2.15 2.31 2.32 2.40 2.54 2.59 2.51 2.62 2.44 2.03 1.91 2.23 2.17 2.01 1.79 1.43 1.37 1.45 1.60 1.67
0.44 0.45 0.49 0.50 0.47 0.43 0.40 0.47 0.58 0.81 1.17 1.51 1.72 1.92 2.24 2.29 2.19 2.19 2.15 2.16 2.19 2.17 2.27 2.31 2.41 2.42 2.42 2.53 2.61 2.56 2.72 2.83 2.46 2.13 1.92 1.76 1.76 1.93 1.76 1.52 1.47 1.63 1.65
0.35 0.36 0.38 0.40 0.41 0.44 0.44 0.48 0.64 0.90 1.21 1.44 1.69 2.03 2.22 2.28 2.36 2.24 2.20 2.19 2.24 2.26 2.31 2.40 2.57 2.55 2.53 2.50 2.69 2.73 2.83 2.76 2.71 2.57 2.39 2.21 1.98 1.67 1.81 1.86 1.70 1.59 1.48
0.33 0.35 0.38 0.39 0.42 0.45 0.51 0.62 0.79 0.96 1.22 1.43 1.67 1.85 2.05 2.16 2.25 2.30 2.21 2.17 2.24 2.33 2.19 2.12 2.30 2.36 2.40 2.39 2.57 2.73 2.86 2.83 2.87 2.79 2.50 2.46 2.35 2.03 2.00 1.86 1.72 1.74 1.55
0.42 0.47 0.49 0.56 0.64 0.67 0.70 0.80 0.92 1.08 1.22 1.35 1.49 1.56 1.69 1.84 1.83 1.97 2.02 2.12 2.13 2.17 2.17 2.06 2.07 2.11 2.08 2.11 2.24 2.30 2.37 2.51 2.68 2.59 2.38 2.34 2.18 2.17 2.25 2.14 1.89 1.72 1.48
0.58 0.68 0.76 0.85 0.94 0.96 0.98 1.05 1.11 1.13 1.19 1.26 1.33 1.38 1.45 1.53 1.55 1.55 1.53 1.68 1.84 1.85 1.92 1.91 1.86 1.91 1.98 1.98 2.09 2.11 2.12 2.16 2.23 2.19 2.30 2.36 2.21 2.16 2.13 2.19 2.34 2.08 1.83
0.83 0.93 1.05 1.10 1.09 1.09 1.08 1.12 1.16 1.15 1.15 1.20 1.21 1.14 1.14 1.22 1.30 1.29 1.33 1.36 1.42 1.41 1.46 1.55 1.63 1.73 1.80 1.87 2.01 2.11 2.10 2.05 2.02 2.12 2.20 2.14 2.11 2.11 2.04 2.03 2.20 2.30 2.13
1.19 1.31 1.43 1.38 1.31 1.30 1.36 1.28 1.21 1.14 1.11 1.12 1.17 1.08 1.05 1.10 1.12 1.08 1.12 1.10 1.10 1.09 1.13 1.24 1.42 1.66 1.77 1.80 1.88 1.98 2.06 2.06 2.02 2.10 2.22 2.25 2.23 2.25 2.20 2.10 2.08 2.02 2.07
1.59 1.69 1.70 1.62 1.45 1.32 1.33 1.30 1.18 1.08 0.98 0.99 1.08 1.10 1.03 1.05 1.07 1.04 0.97 0.93 0.92 0.97 1.06 1.10 1.24 1.41 1.59 1.78 1.93 1.97 1.97 1.99 1.97 1.90 1.99 2.12 2.19 2.30 2.34 2.36 2.27 2.12 2.07
1.51 1.54 1.50 1.50 1.39 1.29 1.21 1.19 1.10 0.95 0.91 0.96 1.01 1.06 0.97 0.94 0.98 0.96 0.98 0.88 0.81 0.81 0.87 1.00 1.20 1.32 1.41 1.47 1.57 1.64 1.70 1.75 1.81 1.78 1.75 1.81 1.89 2.04 2.20 2.30 2.28 2.27 2.16
1.21 1.30 1.35 1.24 1.19 1.13 1.07 1.19 1.21 1.08 1.04 1.07 1.18 1.13 0.99 0.95 0.96 0.91 0.98 0.90 0.84 0.83 0.84 0.96 1.11 1.16 1.22 1.27 1.31 1.42 1.54 1.55 1.52 1.57 1.51 1.50 1.58 1.73 1.88 1.97 2.06 2.20 2.23
1.07 1.09 1.14 1.09 1.10 1.06 1.03 1.16 1.20 1.19 1.23 1.30 1.32 1.20 1.08 0.97 0.91 0.88 0.92 0.92 0.90 0.89 0.91 1.03 1.11 1.12 1.12 1.23 1.25 1.30 1.32 1.26 1.21 1.23 1.21 1.24 1.29 1.39 1.54 1.69 1.90 2.08 2.19
0.90 0.83 0.81 0.82 0.88 0.88 0.83 0.90 1.00 1.08 1.19 1.25 1.21 1.15 1.03 0.89 0.82 0.85 0.84 0.88 0.94 0.92 0.96 1.01 1.11 1.14 1.12 1.17 1.23 1.19 1.11 1.07 1.05 1.00 0.89 0.91 0.99 1.02 1.11 1.15 1.44 1.70 1.92
0.67 0.63 0.59 0.58 0.63 0.56 0.58 0.62 0.73 0.89 1.08 1.15 1.07 0.96 0.89 0.87 0.79 0.76 0.74 0.76 0.80 0.82 0.84 0.88 1.04 1.14 1.03 1.13 1.12 1.02 0.92 0.88 0.92 0.88 0.80 0.78 0.83 0.76 0.73 0.76 0.98 1.28 1.46
0.55 0.57 0.55 0.50 0.52 0.48 0.50 0.58 0.66 0.80 0.90 0.92 0.87 0.79 0.75 0.73 0.66 0.64 0.67 0.72 0.74 0.76 0.77 0.77 0.92 1.00 1.06 1.00 0.84 0.89 0.86 0.86 0.89 0.91 0.92 0.83 0.79 0.87 0.77 0.71 0.78 0.87 0.97
0.45 0.50 0.52 0.49 0.51 0.55 0.58 0.68 0.75 0.75 0.78 0.82 0.81 0.76 0.70 0.65 0.60 0.56 0.59 0.70 0.73 0.70 0.70 0.71 0.73 0.79 0.94 0.89 0.72 0.77 0.75 0.86 0.93 0.96 1.04 1.04 0.97 0.95 1.01 0.95 0.95 0.91 0.84
0.28 0.29 0.32 0.34 0.40 0.44 0.50 0.52 0.54 0.56 0.57 0.61 0.68 0.64 0.56 0.58 0.61 0.58 0.63 0.67 0.67 0.69 0.67 0.69 0.69 0.73 0.79 0.78 0.70 0.72 0.77 0.90 0.91 0.87 0.99 1.04 0.99 1.04 1.10 1.19 1.24 1.16 1.01
0.18 0.16 0.16 0.19 0.22 0.27 0.39 0.45 0.42 0.36 0.36 0.39 0.45 0.48 0.45 0.48 0.54 0.63 0.69 0.67 0.63 0.68 0.69 0.65 0.62 0.63 0.65 0.72 0.64 0.74 0.83 0.87 0.88 0.89 0.95 1.11 1.04 1.01 0.98 1.05 1.18 1.16 1.03
0.16 0.16 0.15 0.15 0.19 0.24 0.29 0.32 0.38 0.34 0.32 0.34 0.35 0.37 0.37 0.40 0.48 0.53 0.51 0.52 0.55 0.60 0.60 0.61 0.59 0.58 0.64 0.77 0.77 0.82 0.82 0.86 0.93 1.01 1.05 1.03 1.13 0.97 0.92 0.92 0.92 1.01 1.00
0.12 0.13 0.14 0.16 0.21 0.22 0.22 0.24 0.26 0.27 0.29 0.30 0.32 0.32 0.29 0.30 0.32 0.37 0.42 0.44 0.46 0.48 0.47 0.48 0.48 0.52 0.62 0.71 0.72 0.74 0.78 0.86 0.86 0.90 0.91 0.88 0.97 0.83 0.74 0.68 0.74 0.81 0.86
0.10 0.12 0.17 0.20 0.23 0.23 0.21 0.21 0.22 0.25 0.30 0.30 0.30 0.30 0.29 0.28 0.30 0.33 0.36 0.41 0.45 0.48 0.45 0.42 0.42 0.47 0.51 0.58 0.62 0.61 0.61 0.65 0.66 0.63 0.74 0.77 0.74 0.69 0.62 0.65 0.69 0.71 0.72
0.11 0.13 0.18 0.20 0.23 0.23 0.23 0.24 0.24 0.24 0.26 0.26 0.27 0.27 0.28 0.30 0.30 0.33 0.38 0.44 0.44 0.40 0.38 0.40 0.42 0.47 0.51 0.51 0.50 0.52 0.52 0.52 0.57 0.55 0.59 0.62 0.59 0.58 0.59 0.62 0.66 0.71 0.74
0.13 0.14 0.16 0.21 0.22 0.23 0.24 0.26 0.25 0.23 0.23 0.24 0.23 0.23 0.26 0.28 0.29 0.27 0.29 0.36 0.38 0.36 0.38 0.39 0.43 0.46 0.49 0.48 0.45 0.44 0.49 0.53 0.59 0.65 0.60 0.58 0.58 0.58 0.64 0.67 0.66 0.69 0.72
0.14 0.15 0.16 0.19 0.20 0.21 0.25 0.27 0.30 0.28 0.25 0.24 0.23 0.24 0.25 0.27 0.27 0.26 0.26 0.29 0.30 0.34 0.34 0.32 0.32 0.30 0.30 0.34 0.35 0.35 0.40 0.47 0.53 0.65 0.72 0.74 0.80 0.81 0.80 0.77 0.68 0.62 0.63